Regional Weather Roundup
Issued by NWS Burlington, VT

Current Version | Previous Version | Text Only | Print | Product List | Glossary Off
Versions: 1 2 3 4 5 6 7 8 9 10 11 12 13 14 15 16 17 18 19 20 21 22 23 24 25 26 27 28 29 30 31 32 33 34 35 36 37 38 39 40 41 42 43 44 45 46 47 48 49 50

000
ASUS41 KBTV 132210
RWRBTV
VERMONT REGIONAL WEATHER ROUNDUP
NATIONAL WEATHER SERVICE BURLINGTON VT
500 PM EST WED DEC 13 2017

NOTE: "FAIR" INDICATES FEW OR NO CLOUDS BELOW 12,000 FEET WITH NO
SIGNIFICANT WEATHER AND/OR OBSTRUCTIONS TO VISIBILITY.

* THESE REPORTS ARE NOT UNDER NWS QUALITY CONTROL AND/OR DO NOT
  REPORT WEATHER SUCH AS PRECIPITATION AND FOG.

VTZ001>019-132300-
_____VERMONT_____


CITY           SKY/WX    TMP DP  RH WIND       PRES   REMARKS
BURLINGTON     MOCLDY    14   2  58 NW10G25   29.45R WCI   1
MONTPELIER     LGT SNOW  10   7  87 NW8       29.37R FOG     WCI  -2
MORRISVILLE    LGT SNOW  10   2  69 VRB5      29.37R WCI   2
ST. JOHNSBURY*   N/A     12   7  80 MISG      29.33R
LYNDONVILLE*   LGT SNOW   8   2  78 W10       29.31R WCI  -7
MIDDLEBURY*    CLOUDY    13   7  76 CALM      29.43R
RUTLAND*       CLOUDY    16   6  65 W8        29.42  WCI   5
SPRINGFIELD    MOCLDY    16   5  62 MISG      29.40R
HIGHGATE*      CLOUDY    10   2  70 W8G21     29.44R WCI  -1
NEWPORT*       LGT SNOW   7   1  76 SW12      29.34R WCI  -9
BENNINGTON     CLOUDY    19   7  59 W10G25    29.48R WCI   7
SUTTON*          N/A      5 N/A N/A MISG        N/A

_____LAKE CHAMPLAIN_____


CITY           SKY/WX    TMP DP  RH WIND       PRES   REMARKS
BURTON ISLAND*   N/A     18  10  73 N22G32      N/A  WCI   0
COLCHESTER RF*   N/A     18   7  62 W20G25      N/A  WCI   1
DIAMOND ISL*     N/A     21   5  49 W7G13       N/A  WCI  13

$$

NYZ007-026>031-035-052-083-087-132300-
_____NORTHERN NEW YORK_____


CITY           SKY/WX    TMP DP  RH WIND       PRES   REMARKS
PLATTSBURGH    CLEAR     12   1  61 W10G25    29.45R WCI  -1
SARANAC LAKE   CLOUDY     6   1  80 W12G21    29.38R HAZE    WCI  -9
MASSENA        CLEAR     11   1  64 W13G21    29.55R WCI  -4
OGDENSBURG*    FAIR      11   3  70 W7        29.55R WCI   1
POTSDAM*       PTCLDY     9   1  72 SW9       29.53R WCI  -5
WATERTOWN      CLEAR     13   5  70 W8        29.59S WCI   2
FT DRUM        CLEAR      9   1  71 W6        29.54S WCI  -1
ALBANY         FLURRIES  21   9  59 W16G31    29.55R WCI   7
GLENS FALLS    CLOUDY    18   6  59 CALM      29.49R

$$
NHZ002-005-011-132300-
_____NEW HAMPSHIRE_____


CITY           SKY/WX    TMP DP  RH WIND       PRES   REMARKS
LEBANON        MOCLDY    17   4  56 W8G18     29.37R WCI   7
KEENE          CLOUDY    17   9  70 SW8       29.42R WCI   7
MT WASHINGTON  BLWGSNOW -13 -13 100 W76G82      N/A  VSB 1/16WCI -55
PLYMOUTH       CLOUDY    17   7  65 NW9G18    29.31R WCI   5
WHITEFIELD     CLOUDY    11   4  73 W10       29.29R WCI  -3

$$

_____REGIONAL QUEBEC LOCATIONS_____


CITY           SKY/WX    TMP DP  RH WIND       PRES   REMARKS
MONTREAL       MOCLDY    12   3  67 W21G29    29.42R WCI  -6
QUEBEC CITY    LGT SNOW  12   7  79 W22G29    29.15R BLWGSNOWWCI  -7
SHERBROOKE     LGT SNOW   7   1  78 W17G23    29.27R WCI -12

_____REGIONAL ONTARIO LOCATIONS_____


CITY           SKY/WX    TMP DP  RH WIND       PRES   REMARKS
OTTAWA         CLEAR      5  -4  66 W15       29.53R WCI -13

______KEY______
VSB  - VISIBILITY IN MILES
WCI  - WIND CHILL INDEX
HX   - HEAT INDEX
$$
NNNN



USA.gov is the U.S. government's official web portal to all federal, state and local government web resources and services.